2024-159C

Last updated on Wed Sep 18 2024 00:02:04 GMT+0000 (Coordinated Universal Time)

1 61013U 24159C 24261.67311212 .01005455 00000+0 68153-1 0 9993 2 61013 49.9968 183.6834 0005146 293.0157 156.0047 15.03185673 2525
UTC large
Height (km)
Speed (km/s)
/
Latitude / Longitude
Inclination (degrees)
Orbital Period (minutes)
Azimuth
Elevation
Range (km)
Doppler Factor

Next 0 passes for location: London (51.5072 / 0.1276)

Sorry there are no passes over London.